SM7GXQ Weather Reports


Display with metric or nautical units.
time (UTC)temp
F
wind
direction
speed
MPH
gust
MPH
rain 1hr
in
rain 24hr
in
rain mn
in
humidity
%
barometer
mb
20260831010004 63 218 2.0 10.0 0.00 0.10 0.00 88 1005.7
20260830234504 64 251 2.0 12.0 0.00 0.10 0.00 88 1005.2
20260830233003 64 271 3.0 13.0 0.00 0.10 0.00 88 1005.5
20260830231504 64 242 3.0 10.0 0.00 0.10 0.00 89 1005.4
20260830230004 64 243 2.0 6.0 0.00 0.10 0.00 89 1005.2
20260830224504 65 273 2.0 13.0 0.00 0.10 0.00 89 1003.9
20260830220005 65 211 3.0 8.0 0.00 0.10 0.00 92 1003.9
20260830214504 65 204 3.0 10.0 0.00 0.10 0.10 92 1003.5
20260830213005 65 211 3.0 9.0 0.00 0.10 0.10 92 1003.5
20260830211504 65 203 4.0 8.0 0.00 0.10 0.10 92 1003.5
20260830210004 65 209 4.0 9.0 0.00 0.10 0.10 92 1003.2
20260830204504 65 175 3.0 9.0 0.00 0.10 0.10 92 1003.1
20260830201504 65 213 4.0 12.0 0.00 0.10 0.10 93 1002.6
20260830193005 65 204 5.0 12.0 0.00 0.10 0.10 92 1002.7
20260830191504 65 179 5.0 12.0 0.00 0.10 0.10 92 1002.8
20260830183004 65 197 5.0 14.0 0.00 0.10 0.10 92 1003.0
20260830181504 65 202 4.0 14.0 0.00 0.10 0.10 92 1002.8
20260830174504 65 202 5.0 15.0 0.00 0.10 0.10 93 1002.9
20260830173004 65 188 4.0 15.0 0.00 0.10 0.10 93 1002.9
20260830171504 65 187 6.0 15.0 0.01 0.10 0.10 93 1002.8
20260830164504 65 198 6.0 14.0 0.01 0.10 0.10 92 1002.7
20260830163004 65 170 7.0 16.0 0.01 0.10 0.10 93 1002.8
20260830161504 65 176 7.0 16.0 0.02 0.09 0.09 92 1003.0
20260830160004 65 210 6.0 20.0 0.06 0.09 0.09 93 1003.0
20260830153006 65 192 5.0 15.0 0.06 0.09 0.09 92 1003.2
20260830151504 65 180 7.0 20.0 0.05 0.08 0.08 91 1003.2
20260830150005 66 188 7.0 20.0 0.01 0.04 0.04 90 1003.3
20260830144504 66 182 6.0 15.0 0.00 0.03 0.03 88 1003.6
20260830143005 66 193 6.0 20.0 0.02 0.03 0.03 88 1003.6
20260830134504 65 187 5.0 14.0 0.02 0.03 0.03 90 1003.9
20260830133006 66 182 5.0 12.0 0.01 0.02 0.02 89 1003.9
20260830124505 68 195 5.0 18.0 0.00 0.01 0.01 84 1003.9
20260830121504 68 194 6.0 13.0 0.00 0.01 0.01 84 1004.3
20260830120005 68 182 6.0 16.0 0.00 0.01 0.01 84 1004.3
20260830114505 68 200 6.0 13.0 0.00 0.01 0.01 84 1004.3
20260830113005 68 201 6.0 16.0 0.00 0.01 0.01 85 1004.3
20260830111504 68 180 5.0 13.0 0.01 0.01 0.01 86 1004.3
20260830103006 67 189 5.0 13.0 0.01 0.01 0.01 86 1004.3
20260830100005 71 212 6.0 16.0 0.00 0.00 0.00 80 1004.4
20260830093005 69 205 6.0 15.0 0.00 0.00 0.00 81 1004.6
20260830084505 68 190 5.0 12.0 0.00 0.00 0.00 79 1005.0
20260830081505 68 179 3.0 8.0 0.00 0.00 0.00 81 1005.0
20260830074505 67 157 2.0 6.0 0.00 0.00 0.00 87 1005.2
20260830070005 65 174 1.0 7.0 0.00 0.00 0.00 89 1005.6
20260830063005 65 170 2.0 8.0 0.00 0.00 0.00 91 1005.7
20260830061505 65 196 3.0 9.0 0.00 0.00 0.00 91 1005.7
20260830053006 64 196 3.0 8.0 0.00 0.00 0.00 94 1005.9
20260830051504 63 179 3.0 9.0 0.00 0.00 0.00 94 1006.0
20260830050005 63 175 2.0 6.0 0.00 0.00 0.00 94 1006.0
20260830043005 62 192 1.0 5.0 0.00 0.00 0.00 94 1006.0
20260830033007 61 157 1.0 3.0 0.00 0.02 0.00 93 1006.3
20260830024505 62 183 2.0 3.0 0.00 0.11 0.00 92 1006.1
20260830014505 62 153 1.0 3.0 0.00 0.20 0.00 92 1006.1
20260830013005 62 164 1.0 2.0 0.00 0.20 0.00 91 1006.1